Regional Weather Roundup
Issued by NWS Northern Indiana

Home | Current Version | Previous Version | Graphics & Text | Print | Product List | Glossary Off
Versions: 1 2 3 4 5 6 7 8 9 10 11 12 13 14 15 16 17 18 19 20 21 22 23 24 25 26 27 28 29 30 31 32 33 34 35 36 37 38 39 40 41 42 43 44 45 46 47 48 49 50

000
ASUS43 KIWX 240110
RWRIWX

KIWX WEATHER ROUNDUP
NATIONAL WEATHER SERVICE NORTHERN INDIANA
900 PM EDT SUN APR 23 2017

NOTE: "FAIR" INDICATES FEW OR NO CLOUDS BELOW 12,000 FEET WITH NO
SIGNIFICANT WEATHER AND/OR OBSTRUCTIONS TO VISIBILITY.

* THESE STATIONS ARE NOT UNDER NWS QUALITY CONTROL. THEY ALSO MAY NOT
  REPORT WEATHER SUCH AS PRECIPITATION OR FOG.

INZ001>027-240200-
NORTHERN INDIANA

CITY           SKY/WX    TMP DP  RH WIND       PRES   REMARKS
GARY*          PTCLDY    59  23  25 CALM      30.06S
VALPARAISO     CLEAR     57  25  29 N5        30.05S
MICHIGAN CITY* CLEAR     54  30  40 CALM      30.06S
LAPORTE*       CLEAR     54  31  41 N7        30.05R
KNOX*          CLEAR     54   3  13 N10       30.02S
SOUTH BEND     CLEAR     52  34  50 NW8       30.06R
GOSHEN         CLEAR     60  30  32 N5        30.02F
MONTICELLO*    CLEAR     62  30  29 E3        30.01R
LOGANSPORT*    CLEAR     59  36  41 CALM      30.03R
ROCHESTER*     CLEAR     63  32  31 CALM      30.03R
WARSAW*        CLEAR     57  32  38 CALM      30.03R
ANGOLA*        CLEAR     57  39  51 CALM      30.04R
FORT WAYNE     PTCLDY    56  34  43 E6        30.05R
HUNTINGTON*    CLEAR     58  31  34 E5        30.03R
PERU/GRISSOM   CLEAR     61  33  35 E7        30.01R
MARION*        CLEAR     59  30  33 NE8       30.03R

$$
INZ028>050-240200-
CENTRAL INDIANA

CITY           SKY/WX    TMP DP  RH WIND       PRES   REMARKS
LAFAYETTE      CLEAR     61  33  35 E5        30.01R
KOKOMO*        CLEAR     56  35  45 NE7       30.04R
MUNCIE*        CLEAR     60  29  30 NE8       30.01S
INDIANAPOLIS   PTCLDY    63  29  27 NE12      29.98S

$$
MIZ043>046-050>051-056>058-064>065-071>073-077>080-240200-
SOUTHWEST LOWER MICHIGAN

CITY           SKY/WX    TMP DP  RH WIND       PRES   REMARKS
BATTLE CREEK   CLEAR     62  26  25 NW5       30.05S
BENTON HARBOR  CLEAR     52  28  39 CALM      30.06R
COLDWATER*     CLEAR     60  30  32 CALM      30.04R
HILLSDALE*     CLEAR     52  36  54 CALM      30.03S
HOLLAND        CLEAR     53  34  48 W5        30.07R
GRAND RAPIDS   PTCLDY    57  35  43 W8        30.05R
KALAMAZOO      CLEAR     58  28  32 N8        30.05S
STURGIS*       CLEAR     60  29  31 CALM      30.03S
THREE RIVERS*  FAIR      59  33  37 NW5       30.04S

$$
OHZ001>008-015>018-024>025-240200-
NORTHWEST OHIO

CITY           SKY/WX    TMP DP  RH WIND       PRES   REMARKS
WAUSEON*       FAIR      59  37  44 SE3       30.04R
DEFIANCE       CLEAR     59  24  26 E5        30.04R
FINDLAY        CLEAR     55  33  43 NE8       30.04R
TOLEDO EXPRESS CLOUDY    54  32  43 SE3       30.04R
TOLEDO METCALF CLOUDY    55  35  47 E5        30.06R
LIMA           CLEAR     57  32  38 NE7       30.03R

$$
AND FOR LAKE MICHIGAN COASTAL AND OPEN LAKE BUOY OBSERVATIONS

STATION/POSITION TEMP    WIND        PRES    VSBY  WAVE
                 AIR SEA DIR/SP/G                  HT/PER
                 (F)     (DEG/KT/KT) (MB)    (MI)  (FT/S)
CALUMET HARBOR    58     110/  4/  5 1017.0F
MICHIGAN CITY     52      40/  3/  3   N/A
BURNS HARBOR      54      80/  6/  6 1017.9F
SOUTH LAKE BUOY   41 42   30/  8/ 10 1018.5          0
4 MI NW BRIDGMAN  52 54   60/  2/  4 1018.2          0

$$
&&



USA.gov is the U.S. government's official web portal to all federal, state and local government web resources and services.